DW1347 Weather Reports


time (UTC)temp
C
wind
direction
speed
KPH
gust
KPH
rain 1hr
cm
rain 24hr
cm
rain mn
cm
humidity
%
barometer
mb
20260509164716 17 192 6.4 8.0 0.00 0.00 0.00 27 1023.3
20260509164211 16 235 8.0 11.3 0.00 0.00 0.00 25 1023.2
20260509163709 16 289 14.5 20.9 0.00 0.00 0.00 26 1023.2
20260509163206 16 255 14.5 16.1 0.00 0.00 0.00 28 1023.5
20260509162703 16 231 6.4 8.0 0.00 0.00 0.00 31 1023.2
20260509162159 16 282 4.8 4.8 0.00 0.00 0.00 35 1023.5
20260509161654 16 216 3.2 3.2 0.00 0.00 0.00 33 1023.3
20260509161150 16 234 3.2 3.2 0.00 0.00 0.00 33 1023.3
20260509160646 16 20 3.2 3.2 0.00 0.00 0.00 32 1023.2
20260509160141 15 12 1.6 1.6 0.00 0.00 0.00 33 1023.3
20260509155638 15 181 1.6 1.6 0.00 0.00 0.00 32 1023.2
20260509155134 15 205 3.2 4.8 0.00 0.00 0.00 33 1023.3
20260509154630 15 14 8.0 11.3 0.00 0.00 0.00 33 1023.3
20260509154127 15 318 6.4 8.0 0.00 0.00 0.00 33 1023.5
20260509153624 13 126 3.2 3.2 0.00 0.00 0.00 33 1023.6
20260509153121 13 5 4.8 4.8 0.00 0.00 0.00 35 1023.5
20260509152617 13 40 4.8 4.8 0.00 0.00 0.00 34 1023.3
20260509152114 13 358 4.8 4.8 0.00 0.00 0.00 35 1023.6
20260509151610 13 246 4.8 4.8 0.00 0.00 0.00 36 1023.3
20260509151108 13 226 0.0 1.6 0.00 0.00 0.00 37 1023.5
20260509150606 13 166 0.0 1.6 0.00 0.00 0.00 38 1023.8
20260509150104 13 176 0.0 1.6 0.00 0.00 0.00 37 1023.5
20260509145559 12 24 1.6 3.2 0.00 0.00 0.00 40 1023.7
20260509145055 12 42 0.0 1.6 0.00 0.00 0.00 39 1024.0
20260509144552 12 178 1.6 1.6 0.00 0.00 0.00 40 1023.7
20260509144049 11 201 1.6 1.6 0.00 0.00 0.00 43 1023.8
20260509143546 11 201 0.0 0.0 0.00 0.00 0.00 46 1024.1
20260509143044 10 148 3.2 3.2 0.00 0.00 0.00 46 1024.0
20260509142539 9 192 0.0 0.0 0.00 0.00 0.00 52 1024.2
20260509142035 7 193 0.0 0.0 0.00 0.00 0.00 55 1024.2
20260509141531 6 308 1.6 1.6 0.00 0.00 0.00 57 1023.8
20260509141028 6 197 0.0 0.0 0.00 0.00 0.00 58 1023.8
20260509140525 5 212 0.0 0.0 0.00 0.00 0.00 62 1024.0
20260509140023 5 225 0.0 0.0 0.00 0.00 0.00 60 1024.1
20260509135520 5 174 3.2 3.2 0.00 0.00 0.00 59 1023.8
20260509135017 6 183 1.6 1.6 0.00 0.00 0.00 61 1023.8
20260509134514 6 212 0.0 0.0 0.00 0.00 0.00 58 1024.1
20260509134012 6 193 1.6 1.6 0.00 0.00 0.00 57 1024.0
20260509133508 7 228 1.6 3.2 0.00 0.00 0.00 54 1024.1
20260509133007 7 203 1.6 1.6 0.00 0.00 0.00 52 1024.0
20260509132505 8 222 0.0 0.0 0.00 0.00 0.00 51 1023.6
20260509132002 8 199 0.0 1.6 0.00 0.00 0.00 47 1023.7
20260509131458 9 220 0.0 0.0 0.00 0.00 0.00 46 1023.6
20260509130955 9 230 1.6 1.6 0.00 0.00 0.00 42 1023.8
20260509130450 9 231 1.6 3.2 0.00 0.00 0.00 43 1023.2
20260509125942 9 258 4.8 4.8 0.00 0.00 0.00 43 1023.2
20260509125439 9 221 4.8 4.8 0.00 0.00 0.00 45 1023.0
20260509124934 10 260 1.6 1.6 0.00 0.00 0.00 45 1023.0
20260509124432 10 221 1.6 1.6 0.00 0.00 0.00 44 1023.0
20260509123929 10 252 3.2 3.2 0.00 0.00 0.00 42 1023.0
20260509123427 10 320 1.6 3.2 0.00 0.00 0.00 42 1022.8
20260509122922 11 19 1.6 3.2 0.00 0.00 0.00 40 1022.5
20260509122419 10 208 3.2 3.2 0.00 0.00 0.00 42 1022.6
20260509121916 10 184 1.6 1.6 0.00 0.00 0.00 43 1022.0
20260509121413 10 239 3.2 3.2 0.00 0.00 0.00 42 1021.8
20260509120911 10 336 6.4 9.7 0.00 0.00 0.00 42 1021.7
20260509120408 10 232 6.4 8.0 0.00 0.00 0.00 44 1021.6
20260509115906 10 240 4.8 4.8 0.00 0.00 0.00 45 1021.8
20260509115403 10 237 8.0 9.7 0.00 0.00 0.00 47 1021.8
20260509114901 9 320 8.0 9.7 0.00 0.00 0.00 49 1021.7
20260509114359 9 231 3.2 3.2 0.00 0.00 0.00 49 1021.8
20260509113858 8 244 4.8 4.8 0.00 0.00 0.00 50 1021.7
20260509113355 8 237 8.0 9.7 0.00 0.00 0.00 52 1021.6
20260509112852 8 243 4.8 8.0 0.00 0.00 0.00 52 1021.4
20260509112349 8 286 8.0 9.7 0.00 0.00 0.00 53 1021.4
20260509111846 8 312 8.0 9.7 0.00 0.00 0.00 55 1021.6
20260509111343 8 236 8.0 11.3 0.00 0.00 0.00 53 1021.6
20260509110841 7 222 8.0 9.7 0.00 0.00 0.00 54 1021.6
20260509110336 7 268 4.8 8.0 0.00 0.00 0.00 57 1021.6
20260509105835 6 244 4.8 8.0 0.00 0.00 0.00 60 1021.7
20260509105333 7 247 8.0 8.0 0.00 0.00 0.00 61 1021.8
20260509104829 6 272 4.8 4.8 0.00 0.00 0.00 60 1022.0
20260509104326 6 215 4.8 4.8 0.00 0.00 0.00 62 1022.2
20260509103824 5 244 4.8 8.0 0.00 0.00 0.00 67 1022.1
20260509103321 5 228 4.8 4.8 0.00 0.00 0.00 69 1022.0
20260509102820 4 264 3.2 3.2 0.00 0.00 0.00 72 1021.8
20260509102317 4 234 3.2 3.2 0.00 0.00 0.00 73 1022.0
20260509101812 4 271 4.8 4.8 0.00 0.00 0.00 73 1022.0
20260509101308 5 234 1.6 3.2 0.00 0.00 0.00 71 1021.8
20260509100807 4 234 3.2 3.2 0.00 0.00 0.00 75 1022.1
20260509100303 3 250 1.6 1.6 0.00 0.00 0.00 79 1022.5
20260509095759 3 186 0.0 0.0 0.00 0.00 0.00 79 1022.3
20260509095257 3 236 1.6 1.6 0.00 0.00 0.00 75 1022.1
20260509094754 3 199 0.0 1.6 0.00 0.00 0.00 77 1022.2
20260509094251 3 203 1.6 1.6 0.00 0.00 0.00 76 1022.3
20260509093749 3 292 1.6 3.2 0.00 0.00 0.00 76 1022.3
20260509093246 3 216 0.0 0.0 0.00 0.00 0.00 76 1022.2
20260509092744 4 260 1.6 1.6 0.00 0.00 0.00 75 1022.3
20260509092242 4 219 0.0 0.0 0.00 0.00 0.00 73 1022.2
20260509091739 4 202 1.6 1.6 0.00 0.00 0.00 73 1022.3
20260509091235 5 192 0.0 0.0 0.00 0.00 0.00 73 1022.1
20260509090733 5 216 0.0 0.0 0.00 0.00 0.00 74 1022.2
20260509090231 5 177 1.6 1.6 0.00 0.00 0.00 72 1022.1
20260509085728 5 201 1.6 1.6 0.00 0.00 0.00 72 1022.1
20260509085225 5 216 0.0 1.6 0.00 0.00 0.00 73 1022.1
20260509084721 5 190 3.2 3.2 0.00 0.00 0.00 72 1022.1
20260509084218 5 216 0.0 0.0 0.00 0.00 0.00 72 1022.2
20260509083716 5 196 0.0 1.6 0.00 0.00 0.00 71 1022.1
20260509083212 5 202 0.0 0.0 0.00 0.00 0.00 71 1022.2
20260509082709 5 223 0.0 0.0 0.00 0.00 0.00 70 1022.0
20260509082206 5 205 0.0 1.6 0.00 0.00 0.00 70 1022.5
20260509081703 5 219 0.0 0.0 0.00 0.00 0.00 71 1022.2
20260509081200 5 182 1.6 1.6 0.00 0.00 0.00 75 1022.5
20260509080659 5 215 0.0 0.0 0.00 0.00 0.00 75 1022.5
20260509080156 5 211 0.0 0.0 0.00 0.00 0.00 74 1022.1
20260509075654 6 227 0.0 0.0 0.00 0.00 0.00 70 1022.2
20260509075151 6 215 0.0 0.0 0.00 0.00 0.00 68 1022.3
20260509074648 5 210 1.6 1.6 0.00 0.00 0.00 69 1022.3
20260509074144 5 266 1.6 1.6 0.00 0.00 0.00 78 1022.5
20260509073641 5 218 0.0 0.0 0.00 0.00 0.00 77 1022.0
20260509073137 5 199 0.0 0.0 0.00 0.00 0.00 76 1022.1
20260509072635 6 225 0.0 0.0 0.00 0.00 0.00 73 1022.2
20260509072131 6 221 0.0 0.0 0.00 0.00 0.00 73 1022.2
20260509071628 6 219 0.0 0.0 0.00 0.00 0.00 75 1022.2
20260509071125 6 199 1.6 1.6 0.00 0.00 0.00 79 1022.3
20260509070622 6 230 0.0 1.6 0.00 0.00 0.00 76 1022.2
20260509070119 7 189 3.2 3.2 0.00 0.00 0.00 69 1022.2
20260509065614 6 185 1.6 3.2 0.00 0.00 0.00 78 1022.2
20260509065110 5 172 1.6 3.2 0.00 0.00 0.00 84 1022.6
20260509064607 5 164 4.8 4.8 0.00 0.00 0.00 84 1022.5
20260509064100 6 189 1.6 1.6 0.00 0.00 0.00 80 1022.3
20260509063555 6 222 0.0 0.0 0.00 0.00 0.00 82 1022.5
20260509063053 6 210 0.0 1.6 0.00 0.00 0.00 81 1022.5
20260509062550 6 210 0.0 0.0 0.00 0.00 0.00 80 1022.7
20260509062048 6 177 1.6 3.2 0.00 0.00 0.00 77 1022.5
20260509061544 6 209 0.0 0.0 0.00 0.00 0.00 78 1022.6
20260509061042 7 186 1.6 1.6 0.00 0.00 0.00 78 1022.8
20260509060539 8 190 1.6 1.6 0.00 0.00 0.00 72 1023.0
20260509060034 7 181 0.0 1.6 0.00 0.00 0.00 74 1023.0
20260509055530 7 155 3.2 3.2 0.00 0.00 0.00 75 1023.2
20260509055027 5 178 1.6 1.6 0.00 0.00 0.00 85 1023.0
20260509054523 4 233 0.0 0.0 0.00 0.00 0.00 86 1023.2
20260509054021 4 183 1.6 1.6 0.00 0.00 0.00 86 1023.2
20260509053520 4 223 0.0 0.0 0.00 0.00 0.00 85 1023.3
20260509053016 5 225 0.0 1.6 0.00 0.00 0.00 84 1023.3
20260509052514 4 212 0.0 0.0 0.00 0.00 0.00 85 1023.1
20260509052012 5 241 0.0 0.0 0.00 0.00 0.00 85 1023.3
20260509051509 5 205 0.0 1.6 0.00 0.00 0.00 85 1023.3
20260509051006 5 221 0.0 0.0 0.00 0.00 0.00 84 1023.3
20260509050502 5 222 0.0 0.0 0.00 0.00 0.00 81 1023.6
20260509045959 5 206 0.0 0.0 0.00 0.00 0.00 83 1023.6
20260509045456 5 210 0.0 0.0 0.00 0.00 0.00 84 1024.0
20260509044953 5 199 0.0 0.0 0.00 0.00 0.00 84 1024.0
20260509044451 5 218 0.0 0.0 0.00 0.00 0.00 85 1023.8
20260509043948 5 210 0.0 0.0 0.00 0.00 0.00 84 1024.0
20260509043444 6 205 1.6 1.6 0.00 0.00 0.00 83 1024.4
20260509042939 6 222 0.0 0.0 0.00 0.00 0.00 81 1024.1
20260509042437 7 226 0.0 0.0 0.00 0.00 0.00 79 1024.2
20260509041933 7 227 0.0 1.6 0.00 0.00 0.00 76 1024.1
20260509041430 7 221 0.0 0.0 0.00 0.00 0.00 76 1024.1
20260509040928 7 273 3.2 3.2 0.00 0.00 0.00 76 1024.1
20260509040426 7 243 1.6 1.6 0.00 0.00 0.00 76 1023.8
20260509035922 7 220 0.0 0.0 0.00 0.00 0.00 76 1023.8
20260509035419 7 222 0.0 0.0 0.00 0.00 0.00 77 1024.0
20260509034915 7 200 1.6 1.6 0.00 0.00 0.00 79 1024.4
20260509034414 7 225 0.0 0.0 0.00 0.00 0.00 79 1024.4
20260509033910 7 151 3.2 3.2 0.00 0.00 0.00 77 1024.5
20260509033407 7 205 1.6 1.6 0.00 0.00 0.00 78 1024.4
20260509032904 8 215 0.0 0.0 0.00 0.00 0.00 77 1024.6
20260509032401 8 221 3.2 3.2 0.00 0.00 0.00 75 1024.5
20260509031859 7 160 4.8 4.8 0.00 0.00 0.00 77 1024.6
20260509031356 8 234 1.6 1.6 0.00 0.00 0.00 80 1025.0
20260509030853 7 199 1.6 1.6 0.00 0.00 0.00 76 1024.2
20260509030351 7 221 0.0 0.0 0.00 0.00 0.00 76 1024.4
20260509025848 7 223 0.0 0.0 0.00 0.00 0.00 77 1024.1
20260509025343 8 220 0.0 0.0 0.00 0.00 0.00 75 1023.7
20260509024839 8 222 0.0 0.0 0.00 0.00 0.00 75 1024.1
20260509024335 8 226 0.0 0.0 0.00 0.00 0.00 74 1023.7
20260509023833 8 313 1.6 1.6 0.00 0.00 0.00 74 1023.7
20260509023330 9 160 3.2 3.2 0.00 0.00 0.00 72 1023.5
20260509022827 10 227 1.6 1.6 0.00 0.00 0.00 70 1023.5
20260509022324 9 163 3.2 3.2 0.00 0.00 0.00 71 1023.5
20260509021820 9 222 0.0 0.0 0.00 0.00 0.00 70 1023.6
20260509021318 9 186 1.6 3.2 0.00 0.00 0.00 71 1023.8
20260509020815 9 203 1.6 1.6 0.00 0.00 0.00 73 1023.7
20260509020313 10 224 1.6 1.6 0.00 0.00 0.00 72 1023.6
20260509015811 10 241 0.0 0.0 0.00 0.00 0.00 67 1023.5
20260509015309 10 198 1.6 1.6 0.00 0.00 0.00 67 1023.2
20260509014805 11 196 1.6 1.6 0.00 0.00 0.00 66 1023.2
20260509014302 11 224 0.0 0.0 0.00 0.00 0.00 66 1023.5
20260509013758 11 221 0.0 0.0 0.00 0.00 0.00 62 1023.3
20260509013254 11 197 1.6 1.6 0.00 0.00 0.00 62 1023.2
20260509012751 12 211 0.0 1.6 0.00 0.00 0.00 62 1023.3
20260509012248 12 210 0.0 0.0 0.00 0.00 0.00 63 1023.3
20260509011745 12 223 0.0 0.0 0.00 0.00 0.00 60 1023.2
20260509011243 12 234 0.0 0.0 0.00 0.00 0.00 59 1023.2
20260509010740 12 240 0.0 0.0 0.00 0.00 0.00 58 1023.1
20260509010236 13 188 1.6 3.2 0.00 0.00 0.00 57 1023.0
20260509005734 13 191 1.6 1.6 0.00 0.00 0.00 59 1023.1
20260509005231 13 225 0.0 0.0 0.00 0.00 0.00 57 1023.1
20260509004725 13 228 1.6 3.2 0.00 0.00 0.00 54 1022.8
20260509004224 13 123 3.2 4.8 0.00 0.00 0.00 56 1023.1
20260509003721 13 349 6.4 9.7 0.00 0.00 0.00 55 1023.0
20260509003219 13 218 4.8 4.8 0.00 0.00 0.00 56 1023.0
20260509002716 13 224 0.0 0.0 0.00 0.00 0.00 57 1023.1
20260509002214 13 303 4.8 4.8 0.00 0.00 0.00 57 1023.1
20260509001711 13 262 1.6 1.6 0.00 0.00 0.00 56 1023.0
20260509001206 14 152 3.2 3.2 0.00 0.00 0.00 55 1023.1
20260509000705 13 305 0.0 1.6 0.00 0.00 0.00 56 1023.1
20260509000204 13 206 1.6 3.2 0.00 0.00 0.00 57 1023.3
20260508235658 13 106 4.8 9.7 0.00 0.00 0.00 56 1023.2
20260508235155 13 195 1.6 1.6 0.00 0.00 0.00 57 1023.2
20260508234652 13 210 0.0 0.0 0.00 0.00 0.00 57 1023.1
20260508234148 13 220 0.0 0.0 0.00 0.00 0.00 56 1023.0
20260508233643 13 243 3.2 3.2 0.00 0.00 0.00 56 1023.0
20260508233140 13 264 0.0 1.6 0.00 0.00 0.00 56 1023.0
20260508232637 13 111 4.8 4.8 0.00 0.00 0.00 57 1023.0
20260508232133 13 215 3.2 3.2 0.00 0.00 0.00 57 1022.8
20260508231631 13 175 1.6 3.2 0.00 0.00 0.00 56 1022.6
20260508231127 13 259 4.8 4.8 0.00 0.00 0.00 56 1022.7
20260508230618 13 33 8.0 11.3 0.00 0.00 0.00 56 1023.0
20260508230115 13 231 4.8 4.8 0.00 0.00 0.00 55 1022.6
20260508225613 14 143 0.0 1.6 0.00 0.00 0.00 55 1022.7
20260508225108 13 221 0.0 1.6 0.00 0.00 0.00 56 1022.8
20260508224607 13 225 0.0 0.0 0.00 0.00 0.00 55 1022.8
20260508224104 13 97 3.2 3.2 0.00 0.00 0.00 55 1022.7
20260508223602 14 227 3.2 4.8 0.00 0.00 0.00 53 1022.7
20260508223059 13 351 3.2 4.8 0.00 0.00 0.00 55 1022.5
20260508222556 15 169 3.2 3.2 0.00 0.00 0.00 54 1022.7
20260508222053 15 261 4.8 4.8 0.00 0.00 0.00 54 1023.0
20260508221549 13 104 1.6 1.6 0.00 0.00 0.00 53 1022.8
20260508221045 15 187 4.8 4.8 0.00 0.00 0.00 52 1022.7
20260508220542 15 80 4.8 8.0 0.00 0.00 0.00 53 1022.8
20260508220038 15 222 1.6 3.2 0.00 0.00 0.00 53 1022.8
20260508215535 15 56 1.6 3.2 0.00 0.00 0.00 50 1023.0
20260508215032 16 56 6.4 9.7 0.00 0.00 0.00 50 1022.8
20260508214530 15 232 3.2 3.2 0.00 0.00 0.00 51 1022.8
20260508214026 16 121 6.4 11.3 0.00 0.00 0.00 50 1022.8
20260508213524 16 243 4.8 8.0 0.00 0.00 0.00 50 1022.7
20260508213019 16 136 9.7 14.5 0.00 0.00 0.00 49 1022.8
20260508212515 16 179 3.2 9.7 0.00 0.00 0.00 51 1023.0
20260508212012 16 199 8.0 11.3 0.00 0.00 0.00 50 1022.8
20260508211507 15 210 3.2 3.2 0.00 0.00 0.00 51 1022.7
20260508211004 14 340 4.8 8.0 0.00 0.00 0.00 54 1023.0
20260508210500 13 295 4.8 4.8 0.00 0.00 0.00 55 1023.2
20260508205957 15 192 6.4 11.3 0.00 0.00 0.00 55 1023.1
20260508205455 15 110 4.8 9.7 0.00 0.00 0.00 53 1023.1
20260508204951 17 301 3.2 3.2 0.00 0.00 0.00 49 1023.2
20260508204448 14 259 3.2 4.8 0.00 0.00 0.00 54 1023.1
20260508203943 14 48 3.2 4.8 0.00 0.00 0.00 53 1023.0
20260508203440 14 318 4.8 8.0 0.00 0.00 0.00 53 1023.2
20260508202935 13 280 1.6 3.2 0.00 0.00 0.00 55 1023.3
20260508202433 13 250 4.8 4.8 0.00 0.00 0.00 56 1023.2
20260508201930 15 188 8.0 12.9 0.00 0.00 0.00 54 1023.3
20260508201427 14 320 3.2 3.2 0.00 0.00 0.00 53 1023.3
20260508200924 15 120 12.9 22.5 0.00 0.00 0.00 52 1023.5
20260508200421 14 156 0.0 1.6 0.00 0.00 0.00 56 1023.0
20260508195915 14 142 6.4 9.7 0.00 0.00 0.00 55 1023.6
20260508195413 15 347 4.8 8.0 0.00 0.00 0.00 54 1023.5
20260508194908 15 169 6.4 8.0 0.00 0.00 0.00 54 1023.5
20260508194406 14 47 3.2 4.8 0.00 0.00 0.00 54 1023.2
20260508193857 14 274 4.8 8.0 0.00 0.00 0.00 56 1023.7
20260508193354 14 36 3.2 4.8 0.00 0.00 0.00 58 1023.6
20260508192850 14 217 3.2 4.8 0.00 0.00 0.00 54 1023.8
20260508192347 13 124 4.8 4.8 0.00 0.00 0.00 55 1023.7
20260508191845 14 110 8.0 9.7 0.00 0.00 0.00 57 1023.8
20260508191342 13 106 3.2 4.8 0.00 0.00 0.00 56 1023.6
20260508190839 14 121 6.4 8.0 0.00 0.00 0.00 54 1023.6
20260508190335 14 313 6.4 9.7 0.00 0.00 0.00 56 1023.7
20260508185831 14 23 6.4 11.3 0.00 0.00 0.00 56 1023.8
20260508185329 13 328 4.8 8.0 0.00 0.00 0.00 58 1023.6
20260508184826 14 10 4.8 4.8 0.00 0.00 0.00 56 1023.8
20260508184323 13 131 6.4 11.3 0.00 0.00 0.00 56 1023.7
20260508183820 13 76 6.4 9.7 0.00 0.00 0.00 56 1023.7
20260508183317 13 60 4.8 8.0 0.00 0.00 0.00 56 1024.1
20260508182812 13 176 6.4 11.3 0.00 0.00 0.00 58 1023.8
20260508182309 13 58 4.8 4.8 0.00 0.00 0.00 57 1023.8
20260508181805 14 218 0.0 1.6 0.00 0.00 0.00 52 1024.1
20260508181302 12 218 1.6 3.2 0.00 0.00 0.00 56 1023.8
20260508180753 12 14 1.6 4.8 0.00 0.00 0.00 56 1024.2
20260508180250 13 88 4.8 8.0 0.00 0.00 0.00 55 1024.0
20260508175746 13 88 1.6 3.2 0.00 0.00 0.00 56 1024.1
20260508175243 13 20 6.4 11.3 0.00 0.00 0.00 56 1023.7
20260508174741 12 192 3.2 4.8 0.00 0.00 0.00 56 1024.1
20260508174238 13 21 4.8 8.0 0.00 0.00 0.00 56 1024.0
20260508173734 13 208 8.0 9.7 0.00 0.00 0.00 56 1024.1
20260508173231 13 300 8.0 9.7 0.00 0.00 0.00 57 1024.0
20260508172727 13 352 8.0 9.7 0.00 0.00 0.00 57 1024.0
20260508172225 13 134 8.0 9.7 0.00 0.00 0.00 55 1024.1
20260508171721 14 43 3.2 4.8 0.00 0.00 0.00 46 1023.7
20260508171217 13 274 1.6 1.6 0.00 0.00 0.00 46 1023.7
20260508170714 12 102 4.8 4.8 0.00 0.00 0.00 47 1024.0
20260508170212 13 261 6.4 8.0 0.00 0.00 0.00 47 1024.0
20260508165709 13 233 0.0 1.6 0.00 0.00 0.00 47 1024.0
20260508165206 13 72 3.2 3.2 0.00 0.00 0.00 47 1024.0